Location: *
(43.0833°N, 13.0500°E)
Time: 23:19:02
(UTC+00:00)

USA 215 - Pass Details

Date: 15 November 2019
Orbit: 1101 x 1107 km, 123.0° (Epoch: 02 December)

Event Time Altitude Azimuth Distance (km) Brightness Sun altitude
Exits shadow 17:56:06 43° 58° (ENE) 1,507 3.5 -24.0°
Maximum altitude 17:57:19 48° 28° (NNE) 1,418 3.6 -24.3°
Drops below altitude 10° 18:03:31 10° 317° (NW) 2,963 6.0 -25.4°
Sets 18:06:05 0° 312° (NW) 3,923 6.8 -25.9°
